Weather in Lenzerheide

Switzerland     46°43′34″N   9°33′27″E
temp.,
°C
wind,
m/s
gust,
m/s
humid.,
%
clouds,
%
prec.,
mm/h
press.,
hPa
HPBL,
m
17 september, fri
fri1723:00+9ssw1191100 0.9 101816
02:00+8n1196100 1.1 101769
05:00+9n23100100 0.3 1016158
08:00+9n23100100 0.4 1016145
11:00+10n229176 0.2 1016409
14:00+13n226968 0.3 1014961
17:00+13nne326554 0.0 1014861
20:00+8ne118913 0.0 101518
18 september, sat
sat1823:00+6s11945 0.0 101710
02:00+5s11945 0.0 101710
05:00+5s11946 0.0 101611
08:00+6s11905 0.0 101619
11:00+13nnw11625 0.0 1014582
14:00+16n22469 0.0 10121254
17:00+15n335225 0.0 10121036
20:00+8nne22934 0.0 101417
19 september, sun
sun1923:00+6s1196100 0.0 101510
02:00+6s119474 0.0 101310
05:00+6s119098 0.0 101213
08:00+8ssw1190100 0.8 101019
11:00+8nw1198100 5.6 1010105
14:00+8n3499100 14.0 1011268
17:00+6nw1297100 6.9 1013304
20:00+5n2399100 9.7 1015248
20 september, mon
mon2023:00+5n2399100 0.1 1017236
02:00+5n1299100 0.3 1016228
05:00+5n119999 0.1 1016105
08:00+5nnw119989 0.2 1016115
11:00+7n1191100 0.1 1016343
14:00+8se0184100 0.7 1016617
17:00+7wnw0190100 0.8 1016281
20:00+6nne129476 2.1 101894
21 september, tue
tue2123:00+6n1297100 0.2 101986
02:00+6n1298100 0.4 1020116
05:00+5n2398100 0.3 1021168
08:00+5nne129896 0.3 1021154
11:00+7n228737 0.2 1021539
14:00+10n226265 0.4 10201298
17:00+9n337397 0.1 1021425
20:00+6nne128862 0.1 102265